Probability
58 29 16 10 0 0 0 0 0 0 0 0 0 0 0 0 0 0 0 0 3 19 29 52 68 74 77 81 71 74 74 77 68 65 68 68 77 74 71 74 68 74 74 71 74 81 74 71 65
26 16 13 3 0 0 0 0 0 0 0 0 0 0 0 6 0 0 0 3 16 19 32 48 74 74 77 71 71 71 71 68 68 65 65 68 68 74 71 68 68 71 68 68 74 74 74 61 65
13 16 16 3 0 0 0 0 0 0 0 0 0 3 6 3 3 0 0 6 10 13 26 52 74 81 74 77 74 71 71 68 68 68 71 65 65 61 65 58 58 61 68 68 71 68 65 65 61
16 6 3 0 0 0 0 0 0 0 0 0 0 6 6 3 3 0 6 10 13 13 26 45 71 74 77 77 77 74 71 65 61 61 65 61 74 71 68 61 65 68 74 68 68 68 61 58 55
10 10 3 0 0 0 0 0 0 0 0 0 0 0 3 6 3 6 6 10 10 13 16 45 71 74 77 71 71 74 61 61 55 52 65 65 68 61 68 65 58 61 68 65 68 65 52 48 48
10 6 0 0 0 0 0 0 0 0 0 0 0 0 10 3 3 6 10 10 10 16 29 45 68 74 74 71 71 68 65 58 58 55 58 71 74 74 71 68 55 58 65 65 55 42 52 45 39
3 3 0 0 0 0 0 0 0 0 0 0 3 6 3 3 3 3 6 10 10 23 29 39 52 65 74 71 71 68 68 68 71 61 65 68 71 77 68 65 68 58 65 61 55 42 45 48 52
0 0 0 0 0 0 0 0 0 0 0 0 3 3 3 3 3 3 10 10 10 16 23 32 39 42 52 61 71 68 71 68 68 65 61 65 68 65 77 71 65 55 55 48 42 42 45 42 52
0 0 0 0 0 0 0 0 0 0 0 0 0 6 6 10 6 10 10 10 10 16 19 26 32 29 32 39 55 55 58 61 65 65 71 61 19 23 52 65 65 55 55 52 48 52 52 45 61
0 0 0 0 0 0 0 0 0 0 0 0 3 6 6 13 10 10 6 6 10 13 19 23 23 26 29 39 39 39 42 32 32 26 32 16 6 10 35 61 68 58 48 48 61 55 42 35 26
0 0 0 0 0 0 0 0 0 0 0 0 3 6 10 13 10 3 0 3 6 13 19 19 23 19 26 23 23 29 26 19 19 19 16 10 3 6 10 13 32 32 29 16 23 32 26 23 19
0 0 0 0 0 0 0 0 0 0 0 0 6 6 10 10 10 3 0 0 10 13 19 19 19 10 10 13 19 16 23 19 19 16 13 10 3 0 0 3 3 0 3 6 6 6 3 10 10
0 0 0 0 0 0 0 0 0 0 0 0 10 10 10 6 3 6 6 3 6 10 13 16 19 16 6 6 10 16 19 19 19 13 6 3 0 0 0 0 3 0 0 0 6 6 3 3 0
0 0 0 0 0 0 0 0 0 0 0 3 13 16 16 10 13 6 3 3 3 6 10 13 23 19 10 13 13 10 3 10 6 6 6 3 0 0 0 0 0 3 3 3 3 3 3 6 0
0 0 0 0 0 0 0 0 0 3 3 3 10 16 16 19 16 16 16 13 10 6 10 16 16 16 10 13 13 10 6 6 0 6 3 0 0 0 0 3 3 3 6 3 3 3 3 6 0
0 0 0 0 0 0 0 0 0 3 3 3 6 6 13 19 19 16 19 16 13 10 6 13 16 13 6 3 6 10 10 10 3 6 10 6 6 3 3 3 0 3 3 3 3 3 3 0 0
0 0 0 0 0 0 0 0 0 0 3 3 6 6 13 10 13 13 13 10 10 10 3 3 13 10 13 6 3 3 6 10 6 6 10 10 13 10 6 6 0 3 6 3 3 3 0 0 0
0 0 0 0 0 0 0 0 0 0 3 3 3 10 10 10 10 10 10 13 10 3 3 3 6 10 10 6 3 6 3 10 6 6 13 13 19 19 13 6 3 3 6 3 3 3 0 0 0
0 0 0 0 0 0 0 0 0 0 0 3 3 3 6 6 3 6 6 6 13 6 6 6 10 10 10 6 6 10 10 10 13 13 19 16 16 16 13 13 6 3 3 3 6 3 0 3 0
0 0 0 0 0 0 0 0 0 3 3 6 3 3 3 3 3 3 3 6 13 10 10 10 10 10 10 13 10 6 10 6 6 16 19 19 23 16 13 10 10 6 0 3 3 3 3 0 0
0 0 0 0 0 0 0 0 0 3 3 6 6 6 3 0 3 3 6 6 10 13 13 16 10 10 10 6 3 13 6 13 16 16 16 23 23 23 19 16 13 10 10 10 6 6 6 3 0
0 0 0 0 0 0 0 0 0 0 0 6 6 6 6 0 3 3 6 6 10 10 13 10 10 13 6 6 10 13 19 23 19 16 16 10 16 23 19 19 13 10 10 10 13 10 10 6 10
0 0 0 0 0 0 0 0 0 0 0 3 10 13 10 6 6 10 10 6 3 10 10 13 6 10 6 16 19 13 13 10 19 16 13 6 10 13 19 13 13 10 6 6 6 10 6 3 3
0 0 0 0 0 0 0 0 0 0 0 0 6 10 13 10 6 13 6 6 6 3 10 6 6 6 10 13 23 23 16 16 19 16 16 16 16 16 16 19 16 16 10 10 10 13 10 6 3
0 0 0 0 0 0 0 0 0 3 6 6 10 10 13 13 10 6 6 6 3 3 10 13 13 10 13 16 23 23 26 16 23 26 23 23 23 23 16 23 23 23 19 10 10 13 10 6 6
0 0 0 0 0 0 0 0 0 3 6 6 6 10 6 13 6 6 6 3 3 6 10 16 16 19 23 23 35 39 39 29 26 26 29 23 23 23 23 19 26 19 19 16 13 13 10 6 3
0 0 0 0 0 0 0 0 3 3 10 3 6 10 10 10 6 6 6 3 3 6 10 13 16 19 26 32 32 29 35 29 32 29 26 19 16 19 19 16 19 23 29 26 19 16 13 10 3
0 0 0 0 0 0 0 0 0 6 6 13 10 13 10 6 6 6 3 6 6 10 16 16 16 23 29 29 23 26 26 26 26 26 19 16 16 19 23 23 23 32 32 32 29 29 23 23 19
0 0 0 0 0 0 0 0 0 0 3 13 16 6 10 10 6 10 6 6 6 13 16 16 23 23 23 13 13 26 23 26 26 26 26 23 23 23 19 23 26 26 26 32 29 23 16 19 19
0 0 0 0 0 0 0 0 3 10 10 10 6 10 13 6 0 6 10 6 6 13 16 19 23 23 19 16 16 19 23 16 16 26 29 23 23 26 23 23 23 23 23 16 16 19 13 13 16
Height
5873 5872 5871 5871 5870 5869 5867 5867 5866 5865 5865 5864 5863 5863 5863 5863 5864 5866 5864 5862 5862 5862 5862 5862 5862 5862 5861 5861 5861 5861 5862 5862 5863 5865 5866 5867 5868 5869 5871 5872 5874 5875 5876 5877 5878 5879 5880 5881 5883
5875 5875 5875 5874 5872 5870 5870 5869 5868 5867 5867 5866 5866 5865 5865 5864 5864 5864 5863 5863 5863 5863 5863 5863 5863 5863 5863 5863 5863 5863 5863 5864 5865 5866 5867 5868 5870 5870 5872 5873 5874 5876 5876 5877 5878 5879 5881 5883 5884
5878 5878 5878 5876 5874 5873 5872 5870 5870 5869 5869 5868 5868 5867 5867 5866 5866 5865 5865 5864 5864 5864 5864 5864 5864 5864 5864 5864 5864 5864 5865 5865 5866 5867 5868 5869 5870 5871 5873 5874 5875 5876 5877 5878 5877 5879 5882 5884 5885
5881 5881 5880 5879 5877 5875 5874 5873 5872 5872 5871 5870 5870 5869 5868 5868 5867 5867 5866 5866 5865 5865 5865 5865 5865 5865 5865 5865 5865 5865 5866 5866 5867 5868 5869 5870 5871 5872 5873 5875 5876 5877 5879 5879 5879 5881 5883 5885 5887
5884 5884 5882 5881 5879 5878 5877 5875 5874 5874 5873 5872 5872 5871 5870 5870 5869 5868 5868 5867 5867 5867 5867 5867 5866 5866 5866 5866 5866 5866 5866 5867 5868 5869 5870 5871 5872 5873 5874 5875 5877 5878 5880 5881 5881 5883 5885 5886 5888
5887 5886 5885 5883 5882 5881 5880 5878 5877 5876 5875 5875 5874 5873 5872 5872 5871 5870 5870 5870 5869 5869 5868 5868 5868 5867 5867 5867 5867 5867 5867 5868 5869 5870 5871 5871 5873 5874 5875 5876 5877 5879 5880 5882 5883 5885 5886 5888 5889
5889 5888 5886 5885 5884 5883 5883 5881 5880 5879 5878 5877 5876 5875 5874 5874 5873 5872 5872 5871 5871 5871 5870 5870 5869 5869 5868 5868 5868 5868 5869 5869 5870 5871 5871 5872 5873 5874 5876 5877 5878 5880 5881 5883 5884 5886 5887 5888 5890
5891 5891 5888 5887 5886 5886 5885 5883 5882 5881 5881 5880 5879 5878 5877 5876 5875 5875 5874 5873 5873 5872 5872 5871 5871 5870 5870 5870 5869 5870 5870 5870 5871 5871 5872 5873 5873 5875 5876 5878 5879 5881 5882 5884 5885 5886 5888 5889 5890
5892 5893 5890 5889 5888 5889 5887 5886 5885 5884 5883 5882 5881 5880 5880 5879 5877 5877 5876 5876 5875 5874 5874 5873 5873 5872 5872 5871 5871 5871 5871 5871 5872 5872 5872 5873 5874 5875 5877 5879 5880 5881 5883 5884 5886 5887 5888 5889 5890
5894 5894 5893 5892 5891 5891 5890 5889 5888 5887 5886 5885 5884 5883 5882 5881 5880 5879 5878 5878 5877 5877 5876 5875 5874 5874 5873 5872 5872 5872 5872 5872 5873 5873 5873 5874 5875 5877 5878 5879 5881 5882 5883 5885 5886 5887 5889 5890 5891
5896 5895 5895 5894 5893 5893 5892 5891 5890 5889 5888 5887 5886 5885 5884 5883 5883 5882 5881 5880 5879 5878 5878 5877 5876 5875 5874 5874 5874 5873 5873 5873 5873 5874 5875 5875 5876 5878 5879 5880 5881 5883 5884 5885 5887 5888 5889 5890 5890
5897 5897 5896 5896 5895 5895 5894 5894 5893 5892 5891 5890 5889 5887 5886 5886 5885 5884 5883 5882 5881 5880 5879 5878 5878 5877 5876 5875 5875 5874 5874 5874 5874 5875 5876 5876 5877 5878 5880 5881 5882 5883 5884 5886 5887 5888 5889 5890 5890
5898 5898 5898 5898 5897 5897 5896 5896 5895 5894 5893 5892 5891 5890 5889 5888 5887 5886 5885 5884 5883 5882 5881 5880 5879 5879 5878 5877 5876 5876 5875 5875 5875 5876 5876 5877 5878 5879 5880 5881 5882 5883 5885 5886 5887 5888 5889 5889 5890
5899 5899 5899 5899 5898 5898 5898 5897 5897 5896 5895 5895 5893 5892 5891 5890 5889 5888 5887 5886 5885 5884 5883 5882 5881 5880 5879 5879 5878 5877 5876 5876 5876 5877 5877 5878 5879 5879 5880 5881 5882 5883 5885 5885 5886 5887 5888 5889 5890
5899 5899 5900 5900 5899 5899 5899 5899 5898 5898 5897 5897 5896 5894 5893 5892 5891 5890 5889 5888 5887 5886 5885 5884 5883 5882 5881 5880 5879 5878 5878 5878 5878 5878 5878 5878 5879 5880 5880 5881 5882 5883 5884 5885 5885 5886 5887 5888 5888
5898 5899 5899 5900 5900 5900 5901 5900 5899 5899 5899 5898 5897 5896 5895 5893 5892 5891 5890 5889 5888 5887 5887 5886 5885 5884 5883 5882 5881 5880 5879 5879 5878 5878 5878 5879 5879 5880 5881 5882 5882 5883 5884 5884 5885 5885 5886 5887 5887
5897 5898 5898 5899 5900 5900 5900 5900 5900 5899 5899 5899 5899 5897 5896 5895 5894 5893 5892 5891 5890 5889 5888 5887 5886 5885 5884 5883 5882 5881 5880 5880 5880 5879 5879 5879 5880 5880 5881 5881 5882 5883 5883 5883 5884 5885 5885 5885 5886
5895 5896 5897 5898 5899 5899 5900 5900 5899 5899 5899 5899 5899 5898 5897 5896 5895 5894 5893 5892 5891 5890 5889 5888 5887 5886 5885 5884 5883 5882 5882 5881 5880 5880 5880 5880 5880 5880 5881 5881 5882 5882 5882 5883 5883 5883 5884 5884 5884
5893 5894 5896 5897 5898 5898 5899 5899 5899 5898 5899 5899 5899 5899 5898 5897 5896 5895 5894 5893 5892 5891 5890 5889 5888 5887 5886 5885 5884 5883 5882 5882 5881 5881 5880 5880 5880 5880 5881 5881 5881 5881 5882 5882 5882 5882 5882 5882 5883
5891 5892 5894 5896 5896 5896 5897 5897 5897 5897 5898 5898 5898 5898 5898 5897 5896 5895 5894 5893 5892 5891 5891 5890 5889 5888 5887 5886 5885 5884 5883 5882 5882 5881 5881 5880 5880 5880 5880 5881 5881 5881 5881 5881 5881 5881 5881 5881 5881
5889 5890 5892 5893 5894 5894 5895 5896 5896 5896 5896 5897 5897 5897 5897 5897 5895 5895 5894 5893 5892 5892 5891 5890 5889 5888 5887 5886 5886 5884 5884 5883 5882 5881 5881 5880 5880 5880 5879 5879 5879 5879 5880 5880 5880 5880 5879 5879 5879
5886 5888 5889 5890 5891 5891 5893 5893 5895 5894 5895 5895 5895 5895 5896 5896 5895 5894 5893 5893 5892 5891 5890 5890 5889 5888 5887 5886 5885 5885 5884 5882 5882 5881 5880 5880 5879 5879 5878 5878 5878 5878 5878 5878 5878 5878 5878 5877 5877
5883 5885 5885 5886 5887 5888 5889 5890 5892 5893 5893 5894 5894 5894 5894 5893 5893 5893 5892 5892 5891 5890 5889 5889 5888 5887 5886 5885 5885 5884 5883 5882 5881 5880 5880 5879 5878 5878 5877 5877 5877 5877 5876 5876 5876 5876 5876 5875 5875
5878 5880 5881 5882 5883 5884 5887 5887 5888 5890 5891 5891 5891 5891 5891 5891 5891 5891 5890 5890 5889 5888 5888 5886 5886 5885 5885 5884 5884 5883 5882 5881 5880 5879 5879 5878 5877 5876 5876 5876 5876 5875 5874 5874 5873 5873 5873 5873 5872
5873 5876 5877 5877 5878 5880 5883 5883 5885 5887 5887 5888 5889 5889 5889 5889 5888 5888 5888 5887 5887 5886 5885 5884 5884 5883 5882 5882 5882 5881 5880 5879 5879 5878 5877 5876 5876 5875 5874 5874 5873 5873 5872 5871 5871 5871 5870 5870 5869
5868 5871 5873 5873 5874 5876 5877 5878 5882 5883 5883 5884 5885 5885 5885 5885 5885 5885 5884 5884 5884 5883 5882 5882 5881 5880 5880 5879 5878 5878 5877 5877 5876 5875 5874 5874 5873 5872 5872 5871 5871 5870 5869 5869 5868 5868 5867 5867 5866
5863 5865 5867 5868 5869 5870 5871 5874 5876 5878 5879 5880 5881 5881 5881 5882 5881 5881 5880 5880 5880 5879 5878 5878 5877 5877 5877 5876 5875 5875 5874 5873 5873 5872 5871 5871 5871 5870 5869 5868 5868 5867 5867 5866 5865 5864 5864 5863 5863
5857 5859 5861 5862 5863 5864 5866 5868 5871 5873 5874 5875 5876 5877 5877 5877 5877 5877 5876 5876 5876 5875 5874 5873 5874 5873 5873 5872 5871 5871 5871 5870 5869 5869 5868 5868 5868 5867 5866 5865 5864 5864 5863 5862 5862 5861 5860 5860 5859
5851 5853 5855 5856 5857 5858 5859 5864 5866 5867 5869 5870 5871 5872 5872 5873 5873 5872 5872 5872 5871 5870 5869 5869 5869 5868 5867 5867 5867 5867 5866 5866 5865 5865 5865 5864 5864 5863 5862 5861 5860 5859 5859 5858 5858 5857 5856 5856 5855
5844 5846 5849 5850 5851 5852 5854 5859 5860 5861 5863 5864 5865 5866 5867 5867 5867 5867 5867 5867 5866 5865 5865 5864 5862 5862 5862 5862 5861 5861 5861 5861 5861 5860 5860 5860 5859 5858 5857 5857 5856 5855 5854 5853 5853 5852 5852 5851 5850
Wind_Speed
20 19 18 18 18 17 18 17 17 16 15 14 14 14 12 11 10 10 9 9 9 8 8 7 7 7 8 8 7 7 8 8 7 7 6 6 6 7 7 7 7 8 8 8 8 9 9 9 9
20 19 19 18 18 18 18 18 18 17 16 15 14 14 12 11 11 10 10 10 9 8 8 8 8 8 9 8 8 8 7 7 7 7 7 6 7 7 8 8 8 8 8 8 8 8 9 9 9
19 19 19 19 18 18 19 18 18 17 16 15 15 14 13 12 11 11 10 10 10 9 8 8 8 8 8 9 8 8 8 8 7 7 6 6 7 7 8 8 9 8 8 8 9 9 10 9 8
19 19 19 19 19 20 19 18 18 18 16 16 15 15 14 12 12 11 11 11 10 9 9 9 9 8 8 9 8 8 8 7 7 7 6 6 6 7 8 8 9 9 9 9 10 10 10 9 8
18 18 19 19 19 20 20 19 18 18 17 16 16 15 14 13 13 12 12 12 10 10 10 10 10 9 9 8 8 8 7 7 7 7 7 7 6 7 8 8 8 9 9 9 9 9 9 8 8
17 18 18 18 19 19 20 20 19 18 17 17 16 16 14 14 13 13 13 12 12 11 11 11 10 9 9 9 9 9 7 7 7 7 7 7 6 7 7 8 8 9 9 9 9 8 8 8 7
16 17 18 19 19 20 20 20 19 18 17 17 16 16 15 14 13 13 13 12 12 12 11 11 10 10 10 10 10 9 8 8 7 7 6 6 6 7 8 8 8 8 8 8 8 7 7 7 7
15 16 17 18 19 20 19 20 19 18 17 16 16 16 15 14 14 14 13 13 12 12 12 11 11 10 10 10 10 9 8 7 6 6 6 6 6 7 8 8 8 8 8 8 8 7 7 6 6
13 15 17 18 19 18 18 19 18 18 17 16 16 15 15 14 14 14 14 13 13 12 12 11 11 10 10 9 8 8 8 7 6 5 5 5 6 7 7 7 7 8 7 7 7 6 6 6 6
12 14 15 16 17 17 17 18 17 17 16 16 15 14 14 14 13 13 13 13 12 12 12 11 10 10 9 9 8 7 6 6 6 5 5 5 6 6 6 6 7 7 6 6 6 6 6 6 6
9 11 13 14 14 16 16 17 16 17 16 16 15 14 14 14 13 13 13 13 12 11 11 11 10 9 8 8 7 7 6 6 5 5 5 5 6 6 6 6 7 6 6 5 5 6 6 6 6
7 8 10 12 13 13 14 15 15 16 16 16 15 13 13 13 12 12 12 12 12 11 11 10 10 9 8 8 7 6 6 6 5 5 4 5 5 5 6 7 6 7 6 5 5 5 5 6 6
3 5 6 8 10 11 12 14 14 14 15 16 15 14 13 12 11 11 12 12 12 11 11 10 9 9 8 8 7 6 5 5 4 4 4 4 5 5 5 6 6 6 6 5 5 5 5 6 6
0 1 3 5 7 9 10 12 13 13 14 14 14 13 14 13 12 11 11 11 11 11 11 10 10 10 9 8 7 7 5 5 4 3 4 4 4 3 4 4 5 5 5 5 6 5 6 6 7
3 2 2 3 4 6 8 9 10 11 11 12 12 12 12 13 12 12 11 11 10 10 10 10 10 10 9 8 7 7 6 5 4 3 3 3 3 3 3 3 4 4 4 5 6 6 6 6 7
6 4 3 2 2 3 5 6 7 8 8 9 10 10 11 12 12 11 11 10 9 9 9 9 9 9 9 8 8 7 6 5 4 4 3 2 3 3 2 3 3 3 3 4 5 6 6 6 7
9 6 4 3 3 2 3 4 5 6 6 7 8 9 9 10 10 10 9 8 8 8 8 8 8 9 9 8 7 7 7 6 6 5 4 2 2 3 2 3 3 3 4 4 6 6 7 7 8
12 10 8 6 4 3 2 2 1 3 4 4 6 7 8 8 8 8 8 8 7 8 8 7 7 8 9 8 7 7 6 6 6 5 4 3 1 2 3 3 4 4 4 5 5 6 7 7 8
16 14 12 10 9 7 5 4 3 2 2 3 4 5 6 7 7 7 7 6 6 6 6 6 6 7 7 7 6 6 5 5 4 4 3 2 1 0 2 3 4 4 4 5 5 5 6 7 8
18 16 15 13 13 11 10 8 6 5 4 3 3 4 4 5 5 6 6 6 6 5 6 6 6 6 6 6 6 5 5 4 4 4 3 2 2 1 2 2 3 3 4 5 6 6 7 8 9
19 18 17 16 15 14 13 10 8 8 7 6 4 5 5 6 6 5 5 5 5 4 4 5 5 5 5 5 5 5 5 4 4 4 4 3 3 2 2 3 3 4 5 6 6 8 8 8 9
22 20 20 19 19 17 16 14 11 11 9 8 7 6 7 7 7 7 6 6 6 5 5 5 4 4 5 4 4 4 5 5 5 4 4 4 5 5 4 4 5 5 6 6 7 7 8 8 8
23 23 23 22 21 21 19 17 13 13 11 10 9 9 9 9 9 9 9 9 9 7 6 6 6 5 5 5 5 5 5 6 6 6 5 5 6 6 6 6 6 6 7 8 8 8 9 9 10
24 25 25 25 24 23 20 20 16 13 12 11 11 11 11 12 13 12 11 11 11 10 9 8 8 6 6 6 6 6 7 7 7 7 6 6 7 7 7 7 8 8 8 9 9 9 11 11 12
26 26 26 26 26 24 21 22 18 15 14 13 12 13 13 13 14 14 13 13 12 12 11 10 9 9 8 7 7 8 9 9 8 8 7 7 8 8 8 9 9 10 10 10 11 11 12 12 13
27 28 28 27 26 25 24 24 20 19 17 16 15 14 15 15 16 15 15 14 14 14 14 12 11 11 10 10 9 9 10 10 9 9 9 9 10 10 10 11 11 11 11 12 12 12 12 12 13
29 28 27 29 28 28 27 25 23 21 20 19 17 17 16 17 17 17 16 16 16 16 17 15 14 13 13 12 12 12 11 11 11 10 10 11 11 11 11 11 12 12 12 12 12 12 12 13 13
30 29 29 29 29 29 29 27 25 23 22 21 19 18 18 18 18 18 18 17 17 17 17 17 17 16 16 15 15 14 14 13 13 12 12 12 13 13 12 12 13 13 13 13 13 13 14 14 14
30 31 31 31 31 31 31 29 26 24 23 21 20 19 19 19 19 18 18 18 18 17 18 18 19 20 19 18 17 17 16 15 15 14 14 14 15 15 15 14 14 14 15 15 15 15 15 15 16
32 32 32 33 33 33 33 31 27 26 25 23 22 21 20 19 19 19 18 19 19 19 19 20 21 22 21 21 20 19 18 17 17 16 16 16 17 17 17 17 17 17 17 17 17 18 18 18 18
Wind_Direction
67 68 69 68 67 68 69 68 66 68 68 66 65 64 65 70 74 75 72 74 77 77 80 84 82 80 82 86 91 100 104 110 113 116 119 130 134 132 125 129 130 127 127 127 133 136 134 133 135
68 70 70 67 66 69 68 68 65 64 65 66 66 65 65 68 71 73 72 71 71 77 80 82 82 78 79 83 86 92 99 105 110 116 121 125 124 127 131 131 131 132 129 129 132 136 137 137 134
68 69 68 68 67 67 67 66 65 65 63 63 64 64 61 64 70 72 71 71 73 77 77 79 78 77 78 81 82 86 91 100 110 113 112 116 123 131 134 135 135 134 131 125 126 134 137 135 134
69 68 67 66 65 67 68 66 65 64 61 62 62 61 59 62 67 71 72 71 71 78 80 80 76 76 80 81 81 84 95 102 108 110 110 117 121 125 131 139 141 136 132 125 126 131 135 136 135
70 68 66 64 65 66 67 67 67 64 60 59 59 60 60 62 67 72 74 74 73 76 78 80 75 75 78 80 82 84 94 99 105 110 114 120 122 122 127 133 139 137 135 132 132 136 137 140 141
69 68 66 64 63 65 65 65 65 63 59 57 58 60 61 60 66 70 74 75 75 75 75 76 74 74 77 82 85 86 86 96 103 107 117 123 125 123 128 134 138 141 139 137 140 140 143 145 146
69 67 67 65 61 61 61 62 62 60 58 57 59 61 62 61 62 67 73 74 72 71 70 71 71 74 79 84 85 88 90 95 103 108 113 121 128 128 130 137 138 145 146 144 147 146 146 149 150
72 68 69 66 62 60 60 61 60 59 57 57 59 61 62 62 63 67 71 71 69 69 67 68 71 72 77 81 79 83 91 95 103 110 116 124 129 131 134 137 140 146 153 153 153 152 148 150 151
75 70 69 69 68 62 59 61 60 60 58 55 57 60 61 63 64 66 69 70 69 68 66 67 69 70 73 76 77 85 90 96 101 106 117 126 130 133 138 141 143 147 151 156 161 161 158 158 160
78 72 68 71 73 68 61 62 61 60 59 56 56 58 59 62 63 63 67 68 68 66 66 66 65 68 71 72 73 82 91 94 100 105 113 122 132 139 144 149 151 150 149 156 162 167 171 174 174
77 70 66 67 70 70 65 61 60 59 59 56 55 56 57 60 61 62 65 65 63 63 65 63 60 61 69 70 70 79 90 95 103 106 110 122 135 148 158 159 162 164 164 165 167 171 177 185 186
73 70 65 65 66 65 64 63 61 59 58 57 53 52 53 55 57 57 58 59 59 61 63 62 59 61 68 67 67 73 85 93 103 109 116 132 138 156 166 171 174 177 180 185 186 182 184 190 198
74 69 68 64 65 62 62 62 59 57 58 57 54 54 55 55 55 56 57 55 56 56 58 59 57 56 61 64 64 64 79 92 103 119 124 132 140 149 163 175 176 181 190 198 197 198 202 208 212
156 49 43 56 65 61 60 60 58 54 56 57 56 57 57 54 52 53 56 55 53 55 56 57 55 53 55 58 58 60 75 91 99 115 131 136 140 145 164 177 187 195 201 206 209 215 221 224 228
235 284 324 34 56 61 58 57 52 52 52 51 51 54 53 51 50 49 51 52 51 51 53 55 53 51 50 52 54 56 64 75 80 97 126 148 151 157 170 185 189 198 210 221 225 228 225 228 231
241 260 285 334 16 44 56 58 46 50 48 45 43 46 49 49 47 46 46 48 48 46 46 50 50 50 49 51 54 56 58 61 65 73 91 142 161 169 175 178 193 211 228 237 235 232 229 233 237
235 244 259 274 308 342 29 53 55 51 45 39 35 34 39 46 45 43 42 42 42 38 37 42 47 47 46 48 52 55 55 58 63 67 72 105 166 178 197 218 214 238 242 242 241 245 248 246 246
233 239 245 251 264 287 311 9 55 44 30 25 24 26 33 41 41 39 38 37 34 34 36 38 42 44 42 43 47 49 49 52 52 56 55 64 118 192 219 238 235 239 248 244 246 259 258 253 250
230 237 242 245 251 258 261 275 281 289 327 1 6 13 18 26 26 26 29 28 24 26 31 35 33 34 36 38 42 43 43 45 42 40 40 43 40 253 250 247 240 246 254 247 249 261 266 261 255
234 238 243 248 252 255 257 262 268 277 288 306 333 340 345 351 1 7 15 16 14 14 14 16 20 19 20 23 27 30 30 29 23 18 14 11 354 319 279 264 259 267 268 268 261 265 270 269 267
239 240 242 247 253 257 259 260 264 273 279 288 300 309 309 315 320 328 342 347 349 353 353 355 2 6 6 8 12 16 16 11 10 6 0 349 336 320 293 270 265 275 283 276 272 273 271 273 272
241 243 243 246 254 257 262 262 261 264 269 277 284 289 290 296 298 307 309 312 312 318 319 325 336 343 341 349 349 350 351 350 344 336 325 321 316 301 290 283 278 277 274 278 278 277 277 274 274
243 245 246 248 253 257 261 264 259 260 265 272 276 276 278 282 288 292 296 295 295 293 297 299 305 312 320 323 327 327 326 330 330 325 312 308 308 297 284 279 283 283 275 275 278 275 276 276 277
241 244 248 249 252 255 259 261 259 262 265 269 272 271 273 277 282 286 294 292 287 284 286 285 291 292 300 306 307 308 310 311 314 316 309 299 298 298 286 279 280 284 284 282 281 279 277 274 274
240 244 247 249 251 255 258 258 261 262 264 266 271 271 270 276 283 286 288 292 285 282 280 280 282 283 284 289 291 293 295 295 296 302 303 296 291 290 287 278 277 279 282 283 280 281 282 281 277
242 246 248 252 255 257 257 258 259 260 263 265 269 271 272 277 283 285 284 285 284 282 280 275 277 276 276 282 281 281 285 286 291 288 289 294 292 289 287 277 274 275 280 282 281 279 280 283 280
243 244 247 252 256 258 257 259 259 261 263 265 268 270 271 274 278 281 277 277 281 278 277 270 269 271 273 276 281 280 280 282 284 287 287 291 293 293 290 284 278 278 279 280 284 282 282 281 279
241 242 245 249 254 258 259 260 262 262 265 266 268 269 271 272 275 278 274 274 282 279 275 269 268 271 271 272 274 278 283 284 281 284 285 286 288 290 291 287 285 279 278 280 282 282 281 281 278
240 242 244 249 254 258 261 262 265 266 268 268 267 269 271 273 275 277 277 275 278 282 280 276 271 270 269 269 271 275 281 286 284 283 282 284 284 284 284 285 287 282 279 280 281 281 280 279 278
241 243 244 248 253 258 262 264 265 266 266 269 269 269 269 272 275 274 275 277 278 281 283 280 269 267 268 267 269 272 278 282 281 280 280 283 284 284 283 284 283 283 282 281 280 279 279 278 278